User: anonymous   Login
Location: Unspecified
(0.0000°N, 0.0000°E)
Time: 20:09:57
(UTC+00:00)
Language:

Envisat - Orbit

View from above orbital plane
View from above orbital plane
View from above satellite
View from above satellite

Ground track
Ground track

The orbit data is extracted from the following two-line orbital elements,

1 27386U 02009A   18197.55355571 -.00000021  00000-0  67805-5 0  9994
2 27386  98.1822 230.2274 0001370  96.0276  77.9781 14.37925801857749
Epoch (UTC): 16 July 2018 13:17:07
Eccentricity: 0.0001370
inclination: 98.1822°
perigee height: 764 km
apogee height: 766 km
right ascension of ascending node: 230.2274°
argument of perigee: 96.0276°
revolutions per day: 14.37925801
mean anomaly at epoch: 77.9781°
orbit number at epoch: 85774

The dashed part of the orbit path shows where the satellite is in the earth's shadow,  

DLR